.
WxDataArchive / Data Records for 2014-02-09
2014-02-08 February 2014 2014-02-10

Data Records for Sunday, 09 February 2014

Time	Temp	Chill	HIndex	Humid	Dewpt	 Wind 	HiWind	WindDir	Rain 	Barom 
-----	----	-----	------	-----	-----	------	------	-------	-----	----- 
00:00	12.9	12.9	12.9	84	9.0	0	1	90	0.00	30.186 
00:05	13.1	13.1	13.1	84	9.2	0	1	90	0.00	30.186 
00:10	13.1	13.1	13.1	84	9.2	0	1	90	0.00	30.186 
00:15	13.1	13.1	13.1	84	9.2	0	1	90	0.00	30.176 
00:20	13.1	13.1	13.1	84	9.2	0	1	90	0.00	30.176 
00:25	13.1	13.1	13.1	84	9.2	0	1	90	0.00	30.176 
00:30	13.1	13.1	13.1	84	9.2	0	1	90	0.00	30.171 
00:35	13.3	13.3	13.3	84	9.4	0	2	90	0.00	30.171 
00:40	13.3	13.3	13.3	84	9.4	0	1	90	0.00	30.171 
00:45	13.3	13.3	13.3	84	9.4	0	2	90	0.00	30.170 
00:50	13.3	13.3	13.3	84	9.4	0	1	90	0.00	30.170 
00:55	13.3	13.3	13.3	84	9.4	0	1	90	0.00	30.170 
01:00	13.3	13.3	13.3	84	9.4	0	2	90	0.00	30.162 
01:05	13.3	13.3	13.3	84	9.4	0	1	90	0.00	30.162 
01:10	13.3	13.3	13.3	84	9.4	0	1	90	0.00	30.162 
01:15	13.5	13.5	13.5	85	9.8	0	1	90	0.00	30.155 
01:20	13.5	13.5	13.5	85	9.8	0	1	90	0.00	30.155 
01:25	13.5	13.5	13.5	85	9.8	0	0	---	0.00	30.155 
01:30	13.5	13.5	13.5	85	9.8	0	0	---	0.00	30.152 
01:35	13.6	13.6	13.6	85	9.9	0	0	---	0.00	30.152 
01:40	13.6	13.6	13.6	85	9.9	0	1	90	0.00	30.152 
01:45	13.6	13.6	13.6	85	9.9	0	1	90	0.00	30.152 
01:50	13.6	13.6	13.6	85	9.9	0	0	---	0.00	30.152 
01:55	13.6	13.6	13.6	85	9.9	0	0	---	0.00	30.152 
02:00	13.8	13.8	13.8	85	10.1	0	1	90	0.00	30.143 
02:05	13.8	13.8	13.8	85	10.1	0	1	90	0.00	30.143 
02:10	13.8	13.8	13.8	85	10.1	0	0	---	0.00	30.143 
02:15	13.8	13.8	13.8	85	10.1	0	0	---	0.00	30.137 
02:20	13.8	13.8	13.8	85	10.1	0	1	90	0.00	30.137 
02:25	13.8	13.8	13.8	85	10.1	0	0	---	0.00	30.137 
02:30	13.8	13.8	13.8	85	10.1	0	2	90	0.00	30.135 
02:35	13.8	13.8	13.8	85	10.1	0	0	---	0.00	30.135 
02:40	14.0	14.0	14.0	85	10.3	0	0	---	0.00	30.135 
02:45	14.0	14.0	14.0	85	10.3	0	0	---	0.00	30.137 
02:50	14.0	14.0	14.0	85	10.3	0	0	---	0.00	30.137 
02:55	14.0	14.0	14.0	85	10.3	0	0	---	0.00	30.137 
03:00	14.0	14.0	14.0	85	10.3	0	0	---	0.00	30.136 
03:05	14.0	14.0	14.0	85	10.3	0	0	---	0.00	30.136 
03:10	14.0	14.0	14.0	86	10.6	0	0	---	0.00	30.136 
03:15	14.1	14.1	14.1	86	10.7	0	0	---	0.00	30.138 
03:20	14.1	14.1	14.1	86	10.7	0	0	---	0.00	30.138 
03:25	14.3	14.3	14.3	86	10.9	0	0	---	0.00	30.138 
03:30	14.3	14.3	14.3	86	10.9	0	0	---	0.00	30.138 
03:35	14.3	14.3	14.3	86	10.9	0	0	---	0.00	30.138 
03:40	14.4	14.4	14.4	86	11.0	0	0	---	0.00	30.138 
03:45	14.4	14.4	14.4	86	11.0	0	0	---	0.00	30.136 
03:50	14.4	14.4	14.4	86	11.0	0	0	---	0.00	30.136 
03:55	14.4	14.4	14.4	86	11.0	0	0	---	0.00	30.136 
04:00	14.4	14.4	14.4	86	11.0	0	0	---	0.00	30.137 
04:05	14.6	14.6	14.6	86	11.2	0	0	---	0.00	30.137 
04:10	14.6	14.6	14.6	86	11.2	0	0	---	0.00	30.137 
04:15	14.6	14.6	14.6	86	11.2	0	0	---	0.00	30.135 
04:20	14.6	14.6	14.6	86	11.2	0	0	---	0.00	30.135 
04:25	14.6	14.6	14.6	86	11.2	0	0	---	0.00	30.135 
04:30	14.8	14.8	14.8	86	11.4	0	0	---	0.00	30.131 
04:35	14.8	14.8	14.8	86	11.4	0	0	---	0.00	30.131 
04:40	14.8	14.8	14.8	86	11.4	0	0	---	0.00	30.131 
04:45	14.8	14.8	14.8	86	11.4	0	0	---	0.00	30.124 
04:50	14.8	14.8	14.8	86	11.4	0	0	---	0.00	30.124 
04:55	14.8	14.8	14.8	86	11.4	0	0	---	0.00	30.124 
05:00	14.8	14.8	14.8	86	11.4	0	0	---	0.00	30.127 
05:05	14.9	14.9	14.9	86	11.5	0	0	---	0.00	30.127 
05:10	14.9	14.9	14.9	86	11.5	0	0	---	0.00	30.127 
05:15	15.1	15.1	15.1	86	11.7	0	0	---	0.00	30.134 
05:20	15.1	15.1	15.1	86	11.7	0	0	---	0.00	30.134 
05:25	15.1	15.1	15.1	86	11.7	0	0	---	0.00	30.134 
05:30	15.2	15.2	15.2	86	11.8	0	0	---	0.00	30.121 
05:35	15.2	15.2	15.2	86	11.8	0	0	---	0.00	30.121 
05:40	15.2	15.2	15.2	87	12.0	0	0	---	0.00	30.121 
05:45	15.4	15.4	15.4	87	12.2	0	0	---	0.00	30.123 
05:50	15.4	15.4	15.4	87	12.2	0	1	90	0.00	30.123 
05:55	15.4	15.4	15.4	87	12.2	0	0	---	0.00	30.123 
06:00	15.6	15.6	15.6	87	12.4	0	0	---	0.00	30.124 
06:05	15.6	15.6	15.6	87	12.4	0	0	---	0.00	30.124 
06:10	15.6	15.6	15.6	87	12.4	0	0	---	0.00	30.124 
06:15	15.7	15.7	15.7	87	12.5	0	0	---	0.00	30.105 
06:20	15.7	15.7	15.7	87	12.5	0	0	---	0.00	30.105 
06:25	15.7	15.7	15.7	87	12.5	0	0	---	0.00	30.105 
06:30	15.9	15.9	15.9	87	12.7	0	0	---	0.00	30.106 
06:35	15.9	15.9	15.9	87	12.7	0	0	---	0.00	30.106 
06:40	16.1	16.1	16.1	87	12.9	0	0	---	0.00	30.106 
06:45	16.1	16.1	16.1	87	12.9	0	0	---	0.00	30.110 
06:50	16.2	16.2	16.2	87	13.0	0	1	90	0.00	30.110 
06:55	16.2	16.2	16.2	87	13.0	0	0	---	0.00	30.110 
07:00	16.2	16.2	16.2	87	13.0	0	0	---	0.00	30.107 
07:05	16.4	16.4	16.4	87	13.2	0	1	90	0.00	30.107 
07:10	16.4	16.4	16.4	87	13.2	0	0	---	0.00	30.107 
07:15	16.4	16.4	16.4	87	13.2	0	1	90	0.00	30.116 
07:20	16.5	16.5	16.5	87	13.3	0	1	90	0.00	30.116 
07:25	16.5	16.5	16.5	87	13.3	0	1	90	0.00	30.116 
07:30	16.5	16.5	16.5	87	13.3	0	1	90	0.00	30.118 
07:35	16.5	16.5	16.5	87	13.3	0	1	90	0.00	30.118 
07:40	16.5	16.5	16.5	87	13.3	0	1	90	0.00	30.118 
07:45	16.5	16.5	16.5	87	13.3	0	1	90	0.00	30.101 
07:50	16.4	16.4	16.4	87	13.2	0	1	90	0.00	30.101 
07:55	16.4	16.4	16.4	87	13.2	0	0	---	0.00	30.101 
08:00	16.5	16.5	16.5	87	13.3	0	1	90	0.00	30.104 
08:05	16.5	16.5	16.5	87	13.3	0	1	90	0.00	30.104 
08:10	16.5	16.5	16.5	87	13.3	0	0	---	0.00	30.104 
08:15	16.5	16.5	16.5	87	13.3	0	1	90	0.00	30.106 
08:20	16.5	16.5	16.5	87	13.3	0	1	90	0.00	30.106 
08:25	16.7	16.7	16.7	87	13.5	0	0	---	0.00	30.106 
08:30	16.7	16.7	16.7	87	13.5	0	1	90	0.00	30.118 
08:35	16.9	16.9	16.9	87	13.7	0	0	---	0.00	30.118 
08:40	16.9	16.9	16.9	87	13.7	0	0	---	0.00	30.118 
08:45	16.7	16.7	16.7	86	13.3	0	1	90	0.00	30.107 
08:50	16.9	16.9	16.9	86	13.5	0	1	90	0.00	30.107 
08:55	16.9	16.9	16.9	86	13.5	0	1	90	0.00	30.107 
09:00	16.9	16.9	16.9	86	13.5	0	1	90	0.00	30.120 
09:05	17.0	17.0	17.0	86	13.6	0	1	90	0.00	30.120 
09:10	17.2	17.2	17.2	86	13.7	0	1	90	0.00	30.120 
09:15	17.2	17.2	17.2	86	13.7	0	1	90	0.00	30.117 
09:20	17.3	17.3	17.3	85	13.6	0	1	90	0.00	30.117 
09:25	17.3	17.3	17.3	85	13.6	0	1	90	0.00	30.117 
09:30	17.3	17.3	17.3	85	13.6	0	2	90	0.00	30.119 
09:35	17.5	17.5	17.5	84	13.5	0	1	90	0.00	30.119 
09:40	17.7	17.7	17.7	84	13.7	1	2	90	0.00	30.119 
09:45	17.7	17.7	17.7	84	13.7	0	2	90	0.00	30.121 
09:50	17.7	17.7	17.7	83	13.4	1	3	248	0.00	30.121 
09:55	17.8	17.8	17.8	83	13.5	0	2	248	0.00	30.121 
10:00	18.0	18.0	18.0	83	13.7	0	2	248	0.00	30.117 
10:05	18.1	18.1	18.1	82	13.5	0	2	248	0.00	30.117 
10:10	18.4	18.4	18.4	81	13.6	0	2	248	0.00	30.117 
10:15	18.6	18.6	18.6	81	13.8	1	2	248	0.00	30.116 
10:20	18.8	18.8	18.8	81	14.0	1	3	248	0.00	30.116 
10:25	18.8	18.8	18.8	79	13.4	1	3	248	0.00	30.116 
10:30	18.9	18.9	18.9	79	13.5	1	2	248	0.00	30.115 
10:35	19.1	19.1	19.1	79	13.7	0	3	248	0.00	30.115 
10:40	19.1	19.1	19.1	79	13.7	1	2	248	0.00	30.115 
10:45	19.2	19.2	19.2	78	13.5	1	2	248	0.00	30.115 
10:50	19.4	19.4	19.4	78	13.7	1	2	248	0.00	30.115 
10:55	19.7	19.7	19.7	77	13.7	1	3	248	0.00	30.115 
11:00	20.2	20.2	20.2	77	14.2	1	5	248	0.00	30.119 
11:05	19.7	19.7	19.7	74	12.8	2	4	270	0.00	30.119 
11:10	19.2	19.2	19.2	75	12.6	2	4	270	0.00	30.119 
11:15	18.9	18.9	18.9	75	12.3	2	5	270	0.00	30.123 
11:20	18.8	18.8	18.8	75	12.2	2	4	270	0.00	30.123 
11:25	18.6	18.6	18.6	75	12.0	2	5	270	0.00	30.123 
11:30	18.4	18.4	18.4	75	11.8	1	3	270	0.00	30.126 
11:35	18.4	18.4	18.4	76	12.1	1	3	270	0.00	30.126 
11:40	18.4	18.4	18.4	76	12.1	2	5	270	0.00	30.126 
11:45	18.1	18.1	18.1	75	11.5	2	5	270	0.00	30.130 
11:50	18.3	18.3	18.3	75	11.7	1	4	292	0.00	30.130 
11:55	18.3	18.3	18.3	74	11.4	2	4	270	0.00	30.130 
12:00	18.3	18.3	18.3	74	11.4	2	4	270	0.00	30.131 
12:05	18.4	18.4	18.4	74	11.5	2	4	292	0.00	30.131 
12:10	18.4	18.4	18.4	74	11.5	2	4	270	0.00	30.131 
12:15	18.3	18.3	18.3	74	11.4	2	4	270	0.00	30.133 
12:20	18.4	18.4	18.4	74	11.5	2	4	315	0.00	30.133 
12:25	18.6	18.6	18.6	73	11.4	2	5	315	0.00	30.133 
12:30	18.6	18.6	18.6	72	11.1	2	6	270	0.00	30.126 
12:35	18.8	18.8	18.8	72	11.3	3	4	270	0.00	30.126 
12:40	18.6	18.6	18.6	71	10.8	2	6	270	0.00	30.126 
12:45	18.6	18.6	18.6	71	10.8	3	5	270	0.00	30.116 
12:50	18.9	18.9	18.9	71	11.1	2	4	270	0.00	30.116 
12:55	18.9	18.9	18.9	71	11.1	2	5	270	0.00	30.116 
13:00	19.1	19.1	19.1	71	11.3	2	5	270	0.00	30.114 
13:05	19.2	19.2	19.2	71	11.4	2	3	270	0.00	30.114 
13:10	19.2	19.2	19.2	69	10.7	3	5	270	0.00	30.114 
13:15	19.2	19.2	19.2	70	11.0	2	6	270	0.00	30.117 
13:20	19.4	19.4	19.4	70	11.2	2	5	270	0.00	30.117 
13:25	19.2	19.2	19.2	69	10.7	3	5	270	0.00	30.117 
13:30	19.4	19.4	19.4	69	10.9	2	5	270	0.00	30.118 
13:35	19.5	13.6	19.5	68	10.7	4	12	270	0.00	30.118 
13:40	19.9	19.9	19.9	69	11.4	3	6	270	0.00	30.118 
13:45	19.7	19.7	19.7	68	10.9	3	5	270	0.00	30.116 
13:50	19.4	19.4	19.4	68	10.6	3	6	292	0.00	30.116 
13:55	19.5	19.5	19.5	68	10.7	3	6	270	0.00	30.116 
14:00	19.5	19.5	19.5	68	10.7	3	4	270	0.00	30.114 
14:05	19.9	19.9	19.9	69	11.4	2	5	270	0.00	30.114 
14:10	20.5	20.5	20.5	68	11.6	2	6	270	0.00	30.114 
14:15	20.3	20.3	20.3	66	10.8	2	5	270	0.00	30.114 
14:20	20.3	20.3	20.3	66	10.8	2	4	270	0.00	30.114 
14:25	20.3	20.3	20.3	66	10.8	2	4	270	0.00	30.114 
14:30	20.3	20.3	20.3	66	10.8	3	5	270	0.00	30.103 
14:35	20.2	20.2	20.2	65	10.3	2	4	270	0.00	30.103 
14:40	20.2	20.2	20.2	65	10.3	2	5	270	0.00	30.103 
14:45	20.0	20.0	20.0	65	10.2	2	6	270	0.00	30.107 
14:50	20.2	20.2	20.2	65	10.3	2	5	270	0.00	30.107 
14:55	20.5	20.5	20.5	65	10.6	2	6	270	0.00	30.107 
15:00	21.1	21.1	21.1	65	11.2	2	3	292	0.00	30.106 
15:05	21.0	21.0	21.0	64	10.8	2	5	315	0.00	30.106 
15:10	21.3	21.3	21.3	64	11.0	2	4	270	0.00	30.106 
15:15	21.0	21.0	21.0	63	10.4	2	4	270	0.00	30.105 
15:20	20.6	20.6	20.6	63	10.0	2	4	270	0.00	30.105 
15:25	20.5	20.5	20.5	63	9.9	2	4	315	0.00	30.105 
15:30	20.5	20.5	20.5	63	9.9	2	4	270	0.00	30.108 
15:35	20.6	20.6	20.6	64	10.4	2	5	270	0.00	30.108 
15:40	21.0	21.0	21.0	63	10.4	2	5	270	0.00	30.108 
15:45	20.6	20.6	20.6	63	10.0	2	5	292	0.00	30.114 
15:50	20.3	20.3	20.3	62	9.4	2	5	270	0.00	30.114 
15:55	20.0	20.0	20.0	62	9.1	1	3	270	0.00	30.114 
16:00	19.7	19.7	19.7	62	8.8	2	6	338	0.00	30.126 
16:05	19.5	19.5	19.5	62	8.6	2	3	270	0.00	30.126 
16:10	19.2	19.2	19.2	62	8.3	2	4	270	0.00	30.126 
16:15	19.1	19.1	19.1	62	8.3	2	4	270	0.00	30.132 
16:20	18.9	18.9	18.9	62	8.1	2	6	270	0.00	30.132 
16:25	18.6	18.6	18.6	62	7.8	3	4	270	0.00	30.132 
16:30	18.4	18.4	18.4	63	7.9	2	4	270	0.00	30.157 
16:35	18.3	18.3	18.3	63	7.8	2	5	270	0.00	30.157 
16:40	18.1	18.1	18.1	64	8.0	3	4	270	0.00	30.157 
16:45	18.1	18.1	18.1	65	8.3	1	5	270	0.00	30.167 
16:50	18.1	18.1	18.1	65	8.3	2	3	270	0.00	30.167 
16:55	18.1	18.1	18.1	65	8.3	2	4	270	0.00	30.167 
17:00	18.0	18.0	18.0	65	8.3	2	3	270	0.00	30.173 
17:05	17.8	17.8	17.8	65	8.1	1	3	270	0.00	30.173 
17:10	17.5	17.5	17.5	65	7.8	2	4	270	0.00	30.173 
17:15	17.3	17.3	17.3	65	7.6	2	5	248	0.00	30.177 
17:20	17.2	17.2	17.2	66	7.8	2	4	248	0.00	30.177 
17:25	17.2	17.2	17.2	66	7.8	1	4	248	0.00	30.177 
17:30	17.0	17.0	17.0	66	7.6	2	4	248	0.00	30.182 
17:35	16.9	16.9	16.9	66	7.5	1	3	270	0.00	30.182 
17:40	16.7	16.7	16.7	66	7.3	2	4	270	0.00	30.182 
17:45	16.7	16.7	16.7	66	7.3	1	3	270	0.00	30.196 
17:50	16.5	16.5	16.5	66	7.2	1	3	270	0.00	30.196 
17:55	16.5	16.5	16.5	66	7.2	1	3	292	0.00	30.196 
18:00	16.4	16.4	16.4	66	7.1	1	3	292	0.00	30.200 
18:05	16.2	16.2	16.2	66	6.9	1	5	338	0.00	30.200 
18:10	16.1	16.1	16.1	66	6.8	1	4	270	0.00	30.200 
18:15	16.1	16.1	16.1	66	6.8	1	2	270	0.00	30.204 
18:20	15.9	15.9	15.9	66	6.6	1	3	270	0.00	30.204 
18:25	15.9	15.9	15.9	66	6.6	1	2	270	0.00	30.204 
18:30	15.7	15.7	15.7	66	6.4	1	3	270	0.00	30.212 
18:35	15.6	15.6	15.6	66	6.3	2	4	270	0.00	30.212 
18:40	15.4	15.4	15.4	65	5.8	2	4	248	0.00	30.212 
18:45	15.4	15.4	15.4	65	5.8	1	2	248	0.00	30.227 
18:50	15.2	15.2	15.2	65	5.6	1	3	248	0.00	30.227 
18:55	15.1	15.1	15.1	66	5.8	1	2	248	0.00	30.227 
19:00	15.1	15.1	15.1	66	5.8	0	2	248	0.00	30.227 
19:05	15.1	15.1	15.1	66	5.8	0	2	248	0.00	30.227 
19:10	14.9	14.9	14.9	66	5.6	1	3	248	0.00	30.227 
19:15	14.8	14.8	14.8	66	5.5	0	2	248	0.00	30.229 
19:20	14.4	14.4	14.4	66	5.1	0	1	248	0.00	30.229 
19:25	14.3	14.3	14.3	67	5.4	0	2	248	0.00	30.229 
19:30	14.3	14.3	14.3	67	5.4	0	1	248	0.00	30.230 
19:35	14.1	14.1	14.1	67	5.2	0	1	248	0.00	30.230 
19:40	14.0	14.0	14.0	67	5.1	0	1	248	0.00	30.230 
19:45	13.8	13.8	13.8	68	5.2	0	1	248	0.00	30.232 
19:50	13.6	13.6	13.6	68	5.0	0	1	248	0.00	30.232 
19:55	13.5	13.5	13.5	68	4.9	0	1	248	0.00	30.232 
20:00	13.3	13.3	13.3	68	4.7	0	1	248	0.00	30.242 
20:05	13.1	13.1	13.1	69	4.9	0	0	---	0.00	30.242 
20:10	12.8	12.8	12.8	69	4.6	0	0	---	0.00	30.242 
20:15	12.6	12.6	12.6	69	4.4	0	0	---	0.00	30.243 
20:20	12.4	12.4	12.4	69	4.2	0	0	---	0.00	30.243 
20:25	12.3	12.3	12.3	70	4.4	0	1	248	0.00	30.243 
20:30	12.1	12.1	12.1	70	4.2	0	0	---	0.00	30.244 
20:35	12.1	12.1	12.1	71	4.5	0	0	---	0.00	30.244 
20:40	12.1	12.1	12.1	71	4.5	0	0	---	0.00	30.244 
20:45	11.9	11.9	11.9	71	4.3	0	0	---	0.00	30.240 
20:50	11.9	11.9	11.9	71	4.3	0	0	---	0.00	30.240 
20:55	11.9	11.9	11.9	71	4.3	0	0	---	0.00	30.240 
21:00	11.9	11.9	11.9	72	4.6	0	0	---	0.00	30.245 
21:05	11.7	11.7	11.7	72	4.4	0	1	248	0.00	30.245 
21:10	11.7	11.7	11.7	72	4.4	0	1	248	0.00	30.245 
21:15	11.9	11.9	11.9	72	4.6	0	1	248	0.00	30.246 
21:20	12.1	12.1	12.1	72	4.8	0	1	248	0.00	30.246 
21:25	12.3	12.3	12.3	72	5.0	0	0	---	0.00	30.246 
21:30	12.1	12.1	12.1	72	4.8	0	0	---	0.00	30.247 
21:35	12.3	12.3	12.3	72	5.0	0	0	---	0.00	30.247 
21:40	12.3	12.3	12.3	73	5.3	0	1	248	0.00	30.247 
21:45	12.4	12.4	12.4	72	5.1	0	1	248	0.00	30.254 
21:50	12.4	12.4	12.4	72	5.1	0	1	248	0.00	30.254 
21:55	12.4	12.4	12.4	72	5.1	0	1	248	0.00	30.254 
22:00	12.4	12.4	12.4	72	5.1	0	1	248	0.00	30.251 
22:05	12.4	12.4	12.4	73	5.4	0	1	248	0.00	30.251 
22:10	12.4	12.4	12.4	73	5.4	0	2	248	0.00	30.251 
22:15	12.4	12.4	12.4	73	5.4	0	1	248	0.00	30.251 
22:20	12.4	12.4	12.4	73	5.4	0	1	248	0.00	30.251 
22:25	12.3	12.3	12.3	73	5.3	0	1	248	0.00	30.251 
22:30	12.3	12.3	12.3	74	5.6	0	0	---	0.00	30.253 
22:35	12.3	12.3	12.3	74	5.6	0	1	248	0.00	30.253 
22:40	12.3	12.3	12.3	74	5.6	0	1	248	0.00	30.253 
22:45	12.3	12.3	12.3	75	5.9	0	1	248	0.00	30.257 
22:50	12.3	12.3	12.3	75	5.9	0	1	248	0.00	30.257 
22:55	12.3	12.3	12.3	75	5.9	0	2	248	0.00	30.257 
23:00	12.3	12.3	12.3	75	5.9	0	1	248	0.00	30.258 
23:05	12.1	12.1	12.1	75	5.7	0	1	248	0.00	30.258 
23:10	11.9	11.9	11.9	75	5.5	0	2	248	0.00	30.258 
23:15	11.7	11.7	11.7	75	5.3	0	3	248	0.00	30.256 
23:20	11.6	11.6	11.6	75	5.2	0	1	248	0.00	30.256 
23:25	11.2	11.2	11.2	75	4.9	0	2	248	0.00	30.256 
23:30	11.1	11.1	11.1	76	5.0	0	2	248	0.00	30.256 
23:35	10.7	10.7	10.7	76	4.7	0	1	248	0.00	30.256 
23:40	10.5	10.5	10.5	76	4.5	0	1	248	0.00	30.256 
23:45	10.4	10.4	10.4	77	4.6	0	2	248	0.00	30.260 
23:50	10.2	10.2	10.2	77	4.5	0	1	248	0.00	30.260 
23:55	9.9	9.9	9.9	77	4.2	0	0	---	0.00	30.260 

CoCoRaHS
IN-AL-39
A2 Web Hosting
Creative Commons License
GoDaddy
search engine by freefind advanced

loaded 2018-11-17 23:13:30 • last modified 2010-11-18 10:43:29
Privacy PolicyDisclaimer
• wx.awcolley.com is powered by PmWiki v.2002016 •
• all content (unless otherwise noted) © 2018 A W Colley